Theta_e
308 308 308 308 308 308 308 308 309 309 309 309 310 310 311 311 312 312 312 313 313 312 312 312 312 313 313 313 314 314 306 308 310 311 314 314 313 314 314 315 317 317 316 317 319
308 308 308 308 308 308 308 308 309 309 309 309 310 310 311 311 312 313 313 314 313 313 312 312 313 314 314 315 314 310 305 308 309 309 313 313 314 314 314 314 314 315 317 316 319
308 308 308 308 308 308 308 308 308 309 309 309 309 310 311 311 313 315 313 312 313 313 312 313 314 315 315 315 314 309 308 309 311 314 314 314 314 314 313 311 315 316 316 316 318
308 308 309 309 309 309 308 308 308 308 309 309 309 310 310 312 311 313 311 311 311 312 312 313 314 316 314 314 315 313 312 311 312 314 314 314 314 313 313 316 316 316 315 316 317
309 309 309 309 309 309 309 309 309 308 308 308 309 309 310 311 313 315 315 313 311 311 313 314 316 316 313 314 314 313 312 314 314 314 313 313 314 313 314 316 315 316 315 315 316
309 309 309 309 309 309 309 309 309 309 309 308 309 309 310 311 311 315 316 316 312 312 314 315 315 315 315 313 312 313 313 313 314 314 314 313 312 313 315 316 316 315 316 315 315
309 309 309 309 309 309 309 309 309 309 309 308 308 309 309 310 311 314 316 316 315 312 312 312 314 314 315 313 313 313 313 310 312 312 313 313 312 310 315 315 315 315 315 315 315
307 308 309 309 308 308 309 309 309 309 308 308 308 309 309 310 310 311 316 316 315 314 312 312 313 314 315 314 312 312 310 313 311 310 312 313 312 312 314 314 314 314 314 314 315
310 307 307 307 308 308 309 309 309 308 308 308 308 309 309 310 310 311 315 315 315 315 314 314 314 314 313 310 311 309 311 311 311 310 311 311 312 312 312 312 313 314 314 314 314
318 313 308 308 308 309 308 308 308 308 308 309 309 310 310 311 312 312 314 315 315 314 314 314 314 308 307 309 310 310 311 310 312 312 310 311 310 309 312 312 313 314 314 314 314
321 320 317 313 310 308 309 309 311 312 312 310 310 308 312 311 314 314 315 316 315 314 311 311 310 311 311 309 310 309 310 311 310 311 311 310 309 310 312 311 311 313 314 315 316
316 321 321 319 317 316 315 316 316 315 317 316 312 312 311 313 315 316 316 314 313 311 309 309 310 310 310 309 311 311 312 310 310 310 310 310 310 309 310 310 313 314 315 316 316
315 318 322 321 320 320 319 317 317 318 317 318 317 317 313 312 314 315 315 314 311 310 309 311 312 310 311 310 311 310 310 310 312 310 308 308 309 308 309 309 312 314 315 316 316
316 316 316 321 320 320 321 321 321 319 319 318 316 318 317 314 313 314 315 315 311 311 309 310 310 311 311 311 311 311 309 310 311 312 312 310 314 312 311 310 308 314 316 317 317
316 317 317 319 318 318 320 321 322 318 327 316 315 316 315 314 313 313 314 314 310 310 311 312 311 311 312 311 310 312 310 310 311 310 310 311 311 313 310 311 310 312 314 316 316
311 314 317 318 319 319 318 321 321 321 325 318 314 313 312 313 311 311 312 312 311 310 311 310 310 310 311 310 310 308 310 309 307 308 313 310 312 313 310 311 311 311 316 315 314
306 309 313 317 318 316 317 319 320 322 319 317 315 312 314 311 310 310 310 310 312 313 313 311 310 309 310 311 310 311 312 314 313 312 315 309 311 314 312 309 309 310 315 313 315
306 305 308 312 316 317 317 318 318 315 318 313 313 312 315 312 310 309 309 311 309 311 310 313 314 310 308 312 312 310 311 313 312 313 313 310 314 314 309 310 311 312 312 311 313
305 305 305 305 307 313 312 319 316 314 315 315 316 317 315 314 312 309 308 309 310 307 315 312 313 309 308 309 312 310 312 311 312 297 307 312 311 310 308 308 310 311 309 312 315
302 302 301 303 304 307 313 313 313 314 314 315 320 318 319 315 314 309 308 309 310 308 310 312 315 308 309 309 309 310 308 313 310 311 310 313 312 314 314 312 309 310 311 314 314
298 300 300 304 304 308 309 308 312 312 313 316 318 319 318 317 315 312 314 312 308 308 311 310 312 311 309 309 310 310 311 310 311 309 311 310 316 308 311 310 311 311 311 313 314
300 299 303 306 307 306 306 307 309 312 314 315 316 317 316 314 316 315 314 313 311 309 311 311 312 309 310 308 307 309 311 310 314 312 310 311 318 309 311 310 310 310 311 311 312
299 300 301 307 305 304 306 307 308 311 313 315 316 316 316 316 317 315 312 311 311 310 311 312 315 315 315 314 309 310 309 312 311 310 314 313 318 305 306 308 310 310 310 310 312
299 298 300 300 303 305 304 307 308 308 310 312 314 315 316 316 315 317 315 314 310 310 311 313 311 314 320 317 311 311 309 309 313 316 315 315 317 313 310 309 309 311 310 313 312
299 299 299 300 299 300 303 307 307 307 308 309 311 313 313 315 314 314 313 313 313 312 312 313 315 310 311 311 311 310 311 311 312 314 317 317 315 315 314 309 311 314 313 313 312
298 298 299 298 302 302 300 300 305 308 308 309 310 309 311 313 311 310 312 314 314 313 314 313 313 313 316 312 310 312 311 310 312 313 314 315 315 315 313 314 313 314 315 315 315
298 298 298 298 298 299 300 301 301 301 302 306 307 308 309 310 312 312 312 313 314 314 313 313 312 314 318 315 315 315 315 314 310 311 312 314 314 313 312 309 311 314 314 313 313
Wind_Speed
10 9 9 8 8 7 6 5 5 5 5 5 6 6 6 6 7 7 6 5 7 6 6 5 4 2 2 3 3 4 5 3 5 7 4 6 4 4 6 7 12 11 7 7 17
11 10 9 8 8 7 6 6 6 6 6 6 6 6 6 7 7 7 6 7 8 8 7 6 4 3 2 2 2 4 4 9 5 5 3 6 6 10 5 5 10 11 16 12 17
10 9 9 8 8 7 7 6 6 6 6 6 6 7 6 6 5 3 5 6 7 8 8 6 5 3 3 1 1 3 4 5 4 5 3 4 3 7 7 4 14 20 20 17 20
12 11 9 9 8 7 7 7 7 7 7 7 7 7 6 4 3 3 3 2 5 7 8 7 5 2 3 1 1 1 1 4 2 4 2 2 2 5 13 14 7 17 14 21 24
13 12 11 10 9 9 8 8 8 7 7 8 7 7 5 5 4 6 4 1 3 6 8 6 5 3 4 2 1 1 1 3 4 4 4 4 10 8 14 20 18 13 16 21 25
15 14 13 12 12 11 10 9 9 9 8 9 8 7 6 4 5 9 8 5 5 6 7 5 3 2 4 2 2 1 2 5 4 6 6 5 5 3 9 19 21 19 20 22 26
17 17 16 14 13 13 12 11 11 10 10 10 9 8 10 11 6 9 10 9 9 9 7 4 4 3 4 2 1 2 4 6 6 4 5 6 7 10 27 22 17 23 22 25 28
17 17 18 17 15 14 13 13 12 11 11 11 10 9 7 9 12 11 11 11 10 9 7 6 4 3 2 5 4 2 4 3 3 5 2 7 11 7 6 20 26 25 23 26 28
13 15 16 17 16 15 15 13 13 11 11 11 10 7 8 8 14 14 13 11 9 7 6 5 5 3 4 4 4 5 3 4 8 6 2 4 8 3 3 11 20 23 26 28 30
10 12 13 14 15 14 14 12 12 11 11 9 12 5 13 5 9 14 16 14 9 8 5 5 3 4 3 4 6 6 4 4 5 1 3 4 14 11 17 12 18 22 24 29 34
14 11 10 12 12 13 11 9 7 5 14 10 4 5 3 10 7 10 17 15 10 7 5 2 3 8 15 8 3 4 4 5 4 4 4 9 9 15 22 18 26 34 34 35 36
10 15 13 11 10 11 10 6 4 1 7 15 25 17 14 7 7 13 17 13 8 5 6 4 8 11 5 5 4 2 2 6 5 4 5 8 12 13 17 16 32 36 40 42 42
9 10 16 14 13 15 12 10 6 3 4 8 20 23 29 20 11 18 23 10 4 6 8 8 4 3 8 4 5 5 6 5 8 4 4 6 7 9 9 18 31 40 44 45 46
15 13 11 19 19 19 18 11 8 1 2 6 8 12 21 18 8 14 26 11 4 11 7 7 4 5 4 5 8 7 9 6 4 2 5 1 8 6 6 11 8 33 39 41 39
17 16 15 17 6 13 22 15 13 6 4 3 4 4 14 15 14 12 29 15 8 8 7 8 8 6 6 7 8 6 5 6 3 4 3 1 5 4 1 7 14 22 35 35 34
10 10 16 14 16 9 7 14 18 5 11 3 4 4 5 3 3 7 14 3 4 6 3 4 1 6 8 2 5 6 5 5 4 1 5 11 8 4 6 7 7 10 24 20 16
8 11 13 18 13 20 13 14 4 9 1 6 5 5 1 3 2 3 7 9 9 5 13 2 5 3 5 5 2 3 5 2 4 1 7 2 5 11 10 9 8 10 16 11 7
11 11 13 16 18 11 20 6 9 5 5 3 4 4 7 6 3 3 6 6 7 2 3 8 7 12 7 11 8 9 8 6 7 4 5 1 8 6 9 17 19 21 24 20 17
14 13 14 10 14 18 9 7 5 6 4 8 4 3 3 3 6 5 7 5 8 10 10 6 7 1 2 2 12 6 7 5 3 2 2 5 8 8 9 11 16 12 4 10 15
14 14 17 13 10 12 3 6 4 4 2 2 10 10 7 4 6 7 8 5 6 13 5 5 3 1 2 4 3 6 7 3 1 3 5 5 6 7 6 8 9 4 7 2 5
6 5 3 5 12 5 5 5 5 10 7 5 2 5 7 6 7 4 5 4 8 6 22 5 4 1 2 7 11 3 5 1 4 5 5 3 8 7 8 8 6 3 4 1 4
3 1 1 10 5 5 4 6 10 6 8 3 1 3 7 7 9 13 13 7 10 13 11 8 4 5 9 2 2 0 5 7 4 4 4 2 16 4 4 3 2 1 2 7 5
3 4 6 15 4 5 2 2 8 6 5 7 7 5 2 3 5 7 4 3 12 8 10 9 5 1 3 2 1 5 6 13 4 3 12 5 14 3 3 4 9 4 5 4 3
5 2 7 12 11 2 4 4 4 7 7 7 5 10 5 6 3 4 3 2 5 6 2 10 5 8 11 4 6 7 9 13 18 9 10 19 26 13 3 5 6 11 12 11 13
12 5 6 3 7 7 5 4 11 9 9 8 4 15 11 8 10 9 11 13 12 2 3 5 7 5 8 1 0 3 9 18 20 30 14 32 17 32 16 9 18 20 19 24 24
10 5 6 4 5 3 8 19 16 6 5 5 14 10 14 17 19 17 13 13 12 6 11 5 4 3 13 7 8 5 7 16 25 26 22 27 22 31 11 14 9 18 22 27 27
17 11 7 8 4 4 7 4 6 11 20 18 14 11 12 15 24 31 23 11 11 13 10 7 8 6 17 16 11 9 29 15 9 19 20 20 32 28 15 8 12 25 28 28 30
Wind_Direction
192 194 195 196 197 203 211 217 227 236 249 257 265 274 281 286 283 266 250 231 221 230 229 223 217 190 126 109 102 121 68 186 214 156 238 176 172 185 197 169 182 201 216 212 193
190 196 198 203 205 207 214 221 231 239 246 255 268 279 286 290 286 259 241 235 236 233 224 213 202 170 108 93 83 94 118 212 194 200 221 198 193 177 170 184 215 225 225 221 201
196 203 206 209 217 217 218 223 234 246 250 256 267 277 285 295 290 236 237 239 231 215 205 194 182 153 100 92 60 137 178 192 222 224 224 198 221 188 167 225 220 224 224 221 206
202 205 217 222 224 231 237 237 238 247 258 262 265 272 282 275 218 179 169 184 205 200 190 182 169 133 97 126 72 118 189 179 212 224 209 196 207 218 214 232 245 248 241 226 211
222 217 219 226 235 240 244 250 254 254 258 268 272 274 273 247 245 197 187 211 187 186 179 176 169 151 153 167 80 97 287 240 256 246 239 261 246 239 248 247 246 252 239 226 221
240 235 230 234 237 243 253 258 260 265 267 270 275 280 266 245 243 213 214 217 202 180 172 177 175 158 126 119 134 335 287 282 270 249 240 217 263 231 251 247 246 242 240 234 227
236 243 243 237 244 249 251 258 265 267 272 276 280 280 269 255 252 223 218 217 212 202 199 194 168 173 146 94 89 359 331 330 245 237 238 217 283 235 249 251 248 243 237 234 234
238 235 244 246 244 249 254 259 261 267 272 274 280 288 263 253 243 233 222 216 208 208 208 202 189 164 148 128 36 46 46 346 293 148 253 161 273 270 261 238 245 245 241 236 234
240 239 236 243 246 250 254 258 262 264 265 271 278 270 268 246 234 221 211 207 204 206 196 187 179 140 125 87 10 6 241 214 317 200 115 178 274 263 274 229 249 252 250 246 243
243 241 237 235 241 246 251 255 261 264 263 264 255 275 240 237 226 216 212 213 206 196 173 180 132 78 45 112 229 205 217 234 237 222 184 229 263 269 263 263 259 263 259 256 252
238 245 238 237 232 237 243 249 260 262 229 215 222 211 249 225 224 209 203 192 178 170 164 118 121 204 213 193 142 141 195 232 241 243 203 232 250 268 270 267 268 268 262 258 255
244 232 234 234 232 235 227 206 192 230 297 249 242 237 239 216 212 203 189 178 171 170 119 51 233 231 131 167 183 171 269 267 276 250 196 270 257 258 263 248 256 261 264 263 261
243 229 220 228 229 235 230 225 247 301 275 261 238 238 231 227 223 203 185 182 149 143 192 179 211 167 164 154 161 213 201 229 231 312 241 322 267 237 263 251 258 261 261 262 261
253 239 240 217 229 225 225 219 222 173 289 253 217 233 215 207 240 204 195 177 181 198 161 235 237 140 173 199 163 251 202 200 223 43 256 20 291 234 248 257 241 260 259 260 262
228 237 235 201 212 204 225 210 202 158 267 216 166 205 177 178 140 190 189 200 174 173 143 236 171 178 187 198 171 235 135 168 175 188 1 268 277 237 156 263 259 257 261 267 272
242 238 220 223 217 218 244 219 187 166 225 201 127 147 143 183 131 120 174 178 155 138 254 235 201 168 196 128 162 138 85 59 59 104 267 198 190 182 174 211 251 267 275 289 293
256 244 235 212 216 236 233 218 226 211 163 196 174 156 103 145 100 144 164 178 176 152 223 149 212 194 163 95 57 145 106 309 321 351 246 73 216 255 282 244 227 249 276 306 326
266 259 242 238 209 184 215 216 224 183 235 55 108 97 178 154 200 148 127 193 252 144 116 185 270 169 193 192 170 198 163 169 223 222 279 17 239 248 235 259 251 260 271 286 301
265 274 269 244 253 230 276 199 217 187 206 161 87 107 240 216 165 159 205 226 207 181 190 170 265 218 118 123 158 197 205 175 74 110 356 223 281 282 265 286 275 255 255 293 307
271 282 279 265 236 241 259 209 253 271 245 263 184 177 187 193 190 182 173 204 214 190 189 214 272 13 132 124 52 158 168 91 346 206 257 267 268 230 260 242 257 298 282 330 339
288 296 227 250 182 163 223 232 204 227 256 201 253 187 207 177 197 207 216 253 199 190 196 141 151 305 150 206 170 141 193 128 139 156 191 302 263 209 224 221 235 197 152 116 108
177 254 338 160 172 212 204 190 192 218 200 206 295 236 206 193 198 203 216 228 187 135 177 204 166 197 209 249 202 59 199 155 148 217 239 176 265 152 175 97 192 214 173 154 113
226 244 230 188 215 224 267 264 204 201 190 185 201 246 102 226 235 226 193 226 161 150 175 174 188 240 321 345 350 203 202 204 121 97 224 153 262 347 260 239 241 244 183 186 329
201 267 224 225 245 226 198 230 231 220 242 227 210 190 223 228 234 321 268 67 208 217 313 178 181 200 230 213 146 194 196 201 202 219 217 233 251 239 219 246 244 234 222 261 280
195 221 207 211 253 238 299 314 229 224 217 230 245 223 215 243 239 239 266 281 279 298 350 205 225 200 241 356 185 255 212 200 206 223 198 249 244 256 245 232 250 267 263 275 279
185 183 201 254 204 170 195 240 245 265 212 209 233 238 226 237 232 260 234 233 235 226 217 173 272 181 267 240 220 256 244 219 219 227 233 252 251 255 240 251 247 254 263 269 275
231 209 210 226 182 195 219 217 245 243 252 259 291 284 260 247 251 253 262 249 233 224 207 192 192 198 251 245 232 238 232 219 225 230 219 233 242 266 268 232 253 269 267 273 280